Piratuba, Brazil
Current Conditions -  °F | °C
As of 4:30 AM on Saturday 20 Dec 2014 (Local Time) from SBCH Reporting Station
Clear Clear  
Wind Chill: 72°   Ceiling: Unl
Heat Index: 72°   Visibility: 6mi
Dew Point: 66°   Wind: 5mph
Humidity: 83%   Direction: 70°ENE
Pressure: 29.74"   Gusts: NA
Location:  27.42°S, 51.77°W
Report Text: SBCH 200630Z 07004KT CAVOK 22/19 Q1007
Loading
Personal Weather Stations






























Interactive Weather Map New forecast layout! Learn more

10-Day Weather Forecast

Advertisements
Track Severe Weather on mobile